Regional Weather Roundup
Issued by NWS Albany, NY

Home | Current Version | Previous Version | Graphics & Text | Print | Product List | Glossary On
Versions: 1 2 3 4 5 6 7 8 9 10 11 12 13 14 15 16 17 18 19 20 21 22 23 24 25 26 27 28 29 30 31 32 33 34 35 36 37 38 39 40 41 42 43 44 45 46 47 48 49 50
000
ASUS41 KALY 180210
RWRALY

NEW YORK STATE HOURLY WEATHER ROUNDUP
NATIONAL WEATHER SERVICE ALBANY NY
1000 PM EDT WED SEP 17 2014

NOTE: "FAIR" INDICATES FEW OR NO CLOUDS BELOW 12,000 FEET WITH NO
SIGNIFICANT WEATHER AND/OR NO OBSTRUCTIONS TO VISIBILITY.

NYZ032-033-038>043-046>054-057>066-NYZ062>081-180300-
EAST


CITY           SKY/WX    TMP DP  RH WIND       PRES   REMARKS
ALBANY         CLEAR     52  47  83 CALM      29.98S
GLENS FALLS    CLEAR     48  44  86 CALM      29.97S
POUGHKEEPSIE   PTCLDY    52  48  86 CALM      29.98S
NEWBURGH       PTCLDY    54  50  87 CALM      30.00
MONTGOMERY     PTCLDY    51  48  89 CALM      29.98F
WHITE PLAINS   CLEAR     54  46  74 CALM      29.99S
ISLIP          PTCLDY    55  48  77 CALM      29.99S
NEW YORK CITY  PTCLDY    66  50  56 S6        29.98S
CENTRAL PARK   CLEAR     64  46  52 CALM      30.01S
$$

NYZ005>009-017-018-044>046-055-056-180300-
CENTRAL


CITY           SKY/WX    TMP DP  RH WIND       PRES   REMARKS
FULTON         CLEAR     50  48  93 CALM      29.97S
SYRACUSE       PTCLDY    55  49  80 CALM      29.97S
ROME           CLEAR     50  47  89 E5        29.99S
ELMIRA         CLEAR     49  48  97 CALM      29.99R
BINGHAMTON     CLEAR     56  44  64 SE3       29.99F
MONTICELLO     CLEAR     50  46  87 CALM      30.01F
$$

NYZ026>034-041>043-180300-
NORTH


CITY           SKY/WX    TMP DP  RH WIND       PRES   REMARKS
WATERTOWN      CLOUDY    57  47  69 S5        29.95S
FORT DRUM      NOT AVBL
MASSENA        CLOUDY    58  50  75 SW12      29.92S
SARANAC LAKE   CLOUDY    49  45  86 SW5       29.94F
PLATTSBURGH    CLOUDY    54  49  83 CALM      29.92S
$$

NYZ001>004-010>016-019>021-180300-
WEST


CITY           SKY/WX    TMP DP  RH WIND       PRES   REMARKS
NIAGARA FALLS  PTCLDY    55  48  77 SW6       29.97R
BUFFALO        PTCLDY    58  47  66 SW6       29.97S
DUNKIRK        PTCLDY    52  50  93 S5        29.99S
JAMESTOWN      PTCLDY    52  46  82 CALM      30.01S
WELLSVILLE     PTCLDY    51  45  79 CALM      30.02S
ROCHESTER      PTCLDY    53  49  86 SW5       29.97S
PENN YAN       PTCLDY    53  50  89 CALM      29.99S
$$

             KEY
       WCI = WIND CHILL INDEX
       VSB = VISIBILITY
       HX  = HEAT INDEX
$$


USA.gov is the U.S. government's official web portal to all federal, state and local government web resources and services.